Location: Buckenweiler
(49.0667°N, 10.2500°E)
Time: 08:27:30
(UTC+00:00)

Cosmos 1500 Rocket - Pass Details

Date: 18 January 2026
Orbit: 597 x 623 km, 82.5° (Epoch: 14 February)

Event Time Altitude Azimuth Distance (km) Brightness Sun altitude
Rises 05:18:14 0° 211° (SSW) 2,860 6.8 -17.1°
Reaches altitude 10° 05:20:35 10° 220° (SW) 1,965 5.9 -16.8°
Maximum altitude 05:24:35 35° 287° (WNW) 994 4.1 -16.1°
Drops below altitude 10° 05:28:39 10° 354° (N) 1,994 6.0 -15.5°
Sets 05:31:04 0° 4° (N) 2,908 6.9 -15.1°
